Weather History for Watertown, WI

Change the Weather History Date:

Wednesday, January 2, 2013

  Actual Average Record
Temperature  
Mean Temperature 14 °F -  
Max Temperature 22 °F 26 °F 55 °F (2000)
Min Temperature 6 °F 10 °F -19 °F (1979)
Degree Days  
Heating Degree Days 51    
Moisture  
Dew Point 10 °F    
Average Humidity 72    
Maximum Humidity 84    
Minimum Humidity 49    
Precipitation  
Precipitation 0.00 in - - ()
Sea Level Pressure  
Sea Level Pressure 30.07 in    
Wind  
Wind Speed 4 mph (SSW)    
Max Wind Speed 10 mph    
Max Gust Speed -    
Visibility 10 miles    
Events Snow    
Averages and records for this station are not official NWS values.
T = Trace of Precipitation, MM = Missing Value Source: NWS Daily Summary

Daily Weather History Graph

Daily Weather History Graph

Search for Another Location

Airport:

Trip Planner

Search our weather history database for the weather conditions in past years. The results will help you decide how hot, cold, wet, or windy it might be!

Date:

Astronomy

Jan. 02, 2013 Rise Set
Actual Time 7:26 AM CST 4:31 PM CST
Civil Twilight 6:54 AM CST 5:03 PM CST
Nautical Twilight 6:18 AM CST 5:39 PM CST
Astronomical Twilight 5:44 AM CST 6:14 PM CST
Moon 10:13 PM CST (1/2) 9:59 AM CST (1/2)
Length of Visible Light 10h 09m
Length of Day
9h 04m
Waning Gibbous, 75% of the Moon is Illuminated
Jan 2
Waning Gibbous
Jan 4
Last Quarter
Jan 11
New
Jan 18
First Quarter
Jan 26
Full

Hourly Weather History & Observations

Time (CST) Temp. Windchill Dew Point Humidity Pressure Visibility Wind Dir Wind Speed Gust Speed Precip Events Conditions
12:15 AM 6.8 °F -2.0 °F 0.5 °F 75% 30.11 in 10.0 mi SW 4.6 mph - N/A   Overcast
12:35 AM 7.7 °F 1.0 °F 1.4 °F 75% 30.11 in 10.0 mi SW 3.5 mph - N/A   Overcast
12:55 AM 8.1 °F -0.5 °F 1.8 °F 75% 30.11 in 10.0 mi SW 4.6 mph - N/A   Overcast
1:55 AM 9.5 °F 1.2 °F 3.2 °F 76% 30.11 in 10.0 mi SW 4.6 mph - N/A   Overcast
2:15 AM 9.7 °F 3.2 °F 3.4 °F 76% 30.12 in 10.0 mi SW 3.5 mph - N/A   Overcast
2:35 AM 10.4 °F 4.0 °F 4.5 °F 77% 30.13 in 10.0 mi SW 3.5 mph - N/A   Overcast
3:15 AM 11.3 °F 5.1 °F 5.5 °F 78% 30.12 in 10.0 mi SW 3.5 mph - N/A   Overcast
3:35 AM 11.8 °F 5.7 °F 5.9 °F 77% 30.11 in 10.0 mi SW 3.5 mph - N/A   Overcast
3:55 AM 12.2 °F - 6.6 °F 78% 30.11 in 10.0 mi Calm Calm - N/A   Overcast
4:15 AM 12.7 °F 6.7 °F 7.3 °F 79% 30.11 in 10.0 mi SW 3.5 mph - N/A   Overcast
4:35 AM 13.1 °F - 7.7 °F 79% 30.11 in 10.0 mi Calm Calm - N/A   Overcast
4:55 AM 13.1 °F 7.1 °F 8.1 °F 80% 30.11 in 10.0 mi WSW 3.5 mph - N/A Snow Light Snow
5:35 AM 13.6 °F - 9.1 °F 82% 30.11 in 10.0 mi Calm Calm - N/A   Overcast
6:15 AM 14.5 °F 7.1 °F 10.0 °F 82% 30.11 in 10.0 mi SSW 4.6 mph - N/A   Overcast
6:35 AM 14.7 °F 7.3 °F 10.4 °F 83% 30.11 in 10.0 mi SSW 4.6 mph - N/A   Overcast
7:15 AM 14.7 °F 7.3 °F 10.4 °F 83% 30.11 in 10.0 mi South 4.6 mph - N/A   Overcast
7:35 AM 14.9 °F - 10.8 °F 84% 30.12 in 10.0 mi Calm Calm - N/A   Overcast
7:55 AM 15.3 °F - 10.9 °F 83% 30.12 in 10.0 mi Calm Calm - N/A   Overcast
8:15 AM 15.6 °F 8.3 °F 11.1 °F 82% 30.12 in 10.0 mi SSW 4.6 mph - N/A   Overcast
8:35 AM 16.2 °F 9.0 °F 11.5 °F 82% 30.11 in 10.0 mi SSW 4.6 mph - N/A   Overcast
8:55 AM 16.5 °F 9.4 °F 11.7 °F 81% 30.12 in 10.0 mi South 4.6 mph - N/A   Overcast
9:15 AM 16.9 °F 8.5 °F 11.3 °F 79% 30.12 in 10.0 mi South 5.8 mph - N/A   Overcast
9:35 AM 17.6 °F 9.3 °F 10.8 °F 75% 30.12 in 10.0 mi South 5.8 mph - N/A   Overcast
9:55 AM 18.0 °F 9.8 °F 10.2 °F 72% 30.12 in 10.0 mi South 5.8 mph - N/A   Overcast
10:15 AM 18.1 °F 10.0 °F 9.1 °F 68% 30.12 in 10.0 mi South 5.8 mph - N/A   Overcast
11:15 AM 20.5 °F 10.0 °F 9.0 °F 61% 30.09 in 10.0 mi South 9.2 mph - N/A   Scattered Clouds
11:35 AM 20.7 °F 9.5 °F 8.8 °F 60% 30.08 in 10.0 mi South 10.4 mph - N/A   Scattered Clouds
11:55 AM 21.0 °F 12.4 °F 7.7 °F 56% 30.07 in 10.0 mi South 6.9 mph - N/A   Clear
12:15 PM 21.2 °F 10.9 °F 7.0 °F 54% 30.06 in 10.0 mi SSE 9.2 mph - N/A   Clear
12:35 PM 21.2 °F 11.7 °F 6.6 °F 53% 30.05 in 10.0 mi South 8.1 mph - N/A   Clear
1:35 PM 21.9 °F 11.7 °F 5.4 °F 49% 30.04 in 10.0 mi South 9.2 mph - N/A   Clear
1:55 PM 21.7 °F 13.2 °F 6.3 °F 51% 30.04 in 10.0 mi South 6.9 mph - N/A   Clear
2:15 PM 21.9 °F 12.5 °F 6.8 °F 52% 30.04 in 10.0 mi SSE 8.1 mph - N/A   Clear
2:35 PM 21.7 °F 13.2 °F 7.3 °F 54% 30.03 in 10.0 mi SSE 6.9 mph - N/A   Clear
3:15 PM 22.1 °F 13.7 °F 9.3 °F 58% 30.04 in 10.0 mi South 6.9 mph - N/A   Clear
3:35 PM 22.3 °F 13.9 °F 10.0 °F 59% 30.04 in 10.0 mi South 6.9 mph - N/A   Scattered Clouds
3:55 PM 21.9 °F 15.7 °F 10.9 °F 63% 30.03 in 10.0 mi SSE 4.6 mph - N/A   Mostly Cloudy
4:15 PM 22.1 °F 15.9 °F 11.3 °F 63% 30.03 in 10.0 mi SE 4.6 mph - N/A   Overcast
4:35 PM 22.1 °F 15.9 °F 12.4 °F 66% 30.03 in 10.0 mi SE 4.6 mph - N/A   Overcast
4:55 PM 22.1 °F 17.4 °F 13.1 °F 68% 30.03 in 10.0 mi SSE 3.5 mph - N/A   Overcast
5:15 PM 21.9 °F 17.2 °F 13.1 °F 69% 30.04 in 10.0 mi SSE 3.5 mph - N/A   Mostly Cloudy
5:35 PM 21.0 °F - 13.1 °F 71% 30.04 in 10.0 mi Calm Calm - N/A   Scattered Clouds
5:55 PM 20.3 °F 15.4 °F 13.3 °F 74% 30.04 in 10.0 mi South 3.5 mph - N/A   Mostly Cloudy
6:15 PM 21.0 °F 16.2 °F 14.4 °F 75% 30.04 in 10.0 mi SSW 3.5 mph - N/A   Overcast
6:35 PM 21.6 °F - 14.7 °F 75% 30.05 in 10.0 mi Calm Calm - N/A   Overcast
6:55 PM 21.9 °F 13.4 °F 14.9 °F 74% 30.04 in 10.0 mi SW 6.9 mph - N/A   Overcast
7:35 PM 22.1 °F 13.7 °F 15.6 °F 76% 30.04 in 10.0 mi SW 6.9 mph - N/A   Overcast
7:55 PM 22.1 °F 12.8 °F 15.4 °F 76% 30.04 in 10.0 mi SW 8.1 mph - N/A   Overcast
9:15 PM 22.1 °F 15.9 °F 15.8 °F 77% 30.03 in 10.0 mi SW 4.6 mph - N/A   Overcast
9:35 PM 22.1 °F 15.9 °F 15.8 °F 77% 30.03 in 10.0 mi SW 4.6 mph - N/A   Overcast
9:55 PM 22.1 °F 15.9 °F 15.8 °F 77% 30.03 in 10.0 mi SW 4.6 mph - N/A   Overcast
10:15 PM 22.1 °F 17.4 °F 16.2 °F 78% 30.03 in 10.0 mi SW 3.5 mph - N/A   Overcast
10:35 PM 21.9 °F 14.5 °F 16.3 °F 79% 30.03 in 10.0 mi SW 5.8 mph - N/A   Overcast
10:55 PM 22.1 °F 15.9 °F 16.5 °F 79% 30.03 in 10.0 mi SW 4.6 mph - N/A   Overcast
11:15 PM 22.1 °F 14.7 °F 16.5 °F 79% 30.04 in 10.0 mi SW 5.8 mph - N/A   Overcast
11:35 PM 22.1 °F 14.7 °F 16.5 °F 79% 30.03 in 10.0 mi WSW 5.8 mph - N/A   Overcast
11:55 PM 21.9 °F 15.7 °F 16.7 °F 80% 30.03 in 10.0 mi SW 4.6 mph - N/A   Overcast